Total_Precipitation_Accumulation
0.48 0.46 0.48 0.51 0.44 0.40 0.52 0.62 0.96 1.28 1.66 2.00 2.04 2.08 2.13 2.30 2.23 1.97 1.82 1.67 1.55 1.55 1.58 1.58 1.54 1.54 1.57 1.72 1.81 2.03 2.15 2.16 2.12 2.05 1.99 1.96 1.90 1.74 1.56 1.45 1.41 1.50 1.46 1.42
0.52 0.42 0.51 0.52 0.51 0.54 0.62 0.72 0.97 1.32 1.84 2.07 2.03 2.03 2.10 2.21 2.19 1.99 1.70 1.58 1.55 1.51 1.60 1.54 1.47 1.43 1.40 1.54 1.58 1.72 1.86 1.86 1.80 1.78 1.83 1.78 1.75 1.64 1.54 1.44 1.38 1.40 1.39 1.30
0.76 0.49 0.72 1.00 0.78 0.81 0.91 0.95 1.13 1.55 1.76 1.82 1.91 1.94 1.99 2.13 2.23 2.11 1.84 1.73 1.77 1.82 1.83 1.66 1.52 1.45 1.48 1.54 1.57 1.62 1.69 1.64 1.64 1.64 1.61 1.60 1.46 1.41 1.45 1.48 1.40 1.33 1.24 1.15
0.79 0.94 1.48 1.29 0.74 0.82 0.98 1.01 1.03 1.16 1.28 1.45 1.58 1.71 1.89 2.05 2.21 2.21 2.10 2.05 2.07 2.04 1.89 1.71 1.59 1.55 1.57 1.54 1.56 1.64 1.62 1.55 1.49 1.49 1.43 1.41 1.42 1.41 1.40 1.40 1.35 1.30 1.19 1.07
1.10 1.41 1.56 1.29 0.81 0.78 1.12 1.31 1.02 1.01 1.03 1.07 1.11 1.30 1.72 1.87 1.96 2.09 2.07 2.03 1.96 1.91 1.81 1.68 1.56 1.51 1.49 1.50 1.46 1.44 1.40 1.36 1.28 1.30 1.36 1.37 1.35 1.42 1.40 1.31 1.26 1.19 1.11 1.08
1.28 1.68 1.92 1.63 0.82 0.63 1.07 1.81 1.24 1.03 1.07 1.12 1.24 1.52 1.60 1.50 1.50 1.62 1.64 1.66 1.73 1.76 1.68 1.56 1.44 1.37 1.37 1.41 1.38 1.32 1.28 1.27 1.18 1.18 1.24 1.30 1.32 1.35 1.27 1.22 1.18 1.06 1.01 1.05
1.33 1.71 1.87 1.12 0.69 0.85 1.76 2.13 1.41 1.18 1.20 1.33 1.44 1.41 1.17 1.08 1.15 1.26 1.40 1.41 1.43 1.60 1.66 1.48 1.26 1.21 1.30 1.31 1.28 1.15 1.13 1.19 1.18 1.15 1.16 1.17 1.19 1.23 1.20 1.15 1.15 1.14 1.12 1.12
1.42 1.88 2.01 0.99 0.84 1.33 1.61 1.26 1.15 1.14 1.17 1.19 1.10 0.95 0.91 0.92 0.93 0.98 1.17 1.29 1.29 1.44 1.43 1.27 1.15 1.19 1.26 1.25 1.13 1.05 1.12 1.23 1.21 1.18 1.07 1.05 1.19 1.23 1.18 1.16 1.11 1.16 1.16 1.15
1.55 1.78 1.42 0.88 0.90 0.97 0.94 0.97 0.94 0.92 0.87 0.82 0.82 0.81 0.81 0.88 0.94 0.96 1.04 1.15 1.16 1.24 1.25 1.16 1.12 1.17 1.22 1.18 1.08 1.13 1.21 1.25 1.27 1.18 1.14 1.12 1.16 1.18 1.13 1.09 1.01 1.01 1.03 1.05
1.21 1.21 0.91 0.80 0.79 0.78 0.76 0.79 0.77 0.77 0.82 0.71 0.72 0.75 0.78 0.84 0.96 1.04 1.07 1.06 1.06 1.15 1.15 1.10 1.02 1.01 1.04 0.98 0.98 1.13 1.26 1.22 1.20 1.20 1.19 1.14 1.09 1.04 1.02 1.00 0.93 0.87 0.89 0.91
1.20 1.03 0.85 0.76 0.68 0.69 0.76 0.75 0.71 0.71 0.78 0.75 0.71 0.78 0.77 0.78 0.87 0.96 1.01 1.01 1.04 1.14 1.13 1.00 0.92 0.88 0.88 0.93 1.02 1.16 1.19 1.13 1.09 1.10 1.07 1.04 0.94 0.86 0.83 0.76 0.68 0.66 0.66 0.67
1.17 0.96 1.01 0.92 0.72 0.67 0.81 0.91 0.83 0.80 0.80 0.74 0.71 0.77 0.83 0.86 0.84 0.89 0.98 1.00 1.06 1.05 1.01 0.93 0.83 0.80 0.83 0.88 0.91 1.05 1.07 1.03 0.99 1.01 0.98 0.91 0.87 0.80 0.73 0.60 0.55 0.50 0.47 0.48
0.82 0.75 0.76 0.72 0.74 0.81 0.91 0.91 0.83 0.84 0.76 0.68 0.74 0.77 0.84 0.89 0.80 0.80 0.88 0.94 1.03 0.98 0.89 0.85 0.80 0.81 0.83 0.75 0.75 0.86 0.95 0.96 0.86 0.81 0.85 0.84 0.81 0.81 0.84 0.69 0.58 0.52 0.49 0.51
0.63 0.71 0.83 0.87 0.98 0.98 0.93 0.83 0.77 0.73 0.67 0.60 0.62 0.72 0.74 0.75 0.70 0.73 0.84 0.85 0.84 0.84 0.82 0.81 0.80 0.79 0.72 0.67 0.72 0.78 0.79 0.77 0.75 0.76 0.74 0.70 0.69 0.68 0.71 0.79 0.80 0.74 0.62 0.58
0.63 0.70 0.80 0.79 0.83 0.84 0.77 0.69 0.64 0.63 0.60 0.61 0.57 0.61 0.64 0.65 0.63 0.62 0.70 0.70 0.70 0.74 0.73 0.68 0.66 0.69 0.67 0.64 0.67 0.68 0.63 0.60 0.60 0.59 0.60 0.62 0.63 0.61 0.61 0.65 0.72 0.75 0.74 0.67
0.56 0.54 0.58 0.60 0.64 0.68 0.68 0.64 0.61 0.60 0.56 0.57 0.57 0.56 0.56 0.54 0.51 0.47 0.52 0.56 0.72 0.80 0.72 0.63 0.58 0.58 0.58 0.60 0.64 0.61 0.56 0.50 0.47 0.46 0.48 0.51 0.54 0.57 0.60 0.61 0.61 0.68 0.71 0.66
0.60 0.62 0.61 0.54 0.51 0.52 0.52 0.51 0.50 0.53 0.52 0.52 0.54 0.49 0.46 0.44 0.46 0.46 0.50 0.56 0.63 0.68 0.65 0.62 0.56 0.47 0.48 0.54 0.57 0.50 0.43 0.41 0.38 0.36 0.40 0.43 0.45 0.49 0.55 0.54 0.58 0.62 0.59 0.57
0.57 0.56 0.52 0.49 0.45 0.39 0.39 0.39 0.40 0.46 0.48 0.48 0.44 0.43 0.41 0.42 0.47 0.46 0.47 0.53 0.57 0.57 0.55 0.50 0.47 0.42 0.38 0.41 0.47 0.43 0.38 0.38 0.32 0.30 0.33 0.38 0.41 0.43 0.45 0.47 0.50 0.51 0.51 0.50
0.45 0.40 0.39 0.41 0.37 0.30 0.30 0.30 0.35 0.39 0.38 0.40 0.42 0.43 0.43 0.44 0.47 0.45 0.48 0.55 0.59 0.60 0.55 0.44 0.46 0.42 0.35 0.34 0.37 0.36 0.34 0.36 0.34 0.33 0.33 0.36 0.40 0.44 0.42 0.40 0.43 0.46 0.48 0.47
0.37 0.33 0.32 0.31 0.28 0.26 0.26 0.24 0.27 0.30 0.33 0.33 0.36 0.42 0.47 0.46 0.43 0.46 0.52 0.60 0.62 0.56 0.47 0.42 0.37 0.37 0.35 0.32 0.32 0.32 0.34 0.37 0.36 0.32 0.34 0.38 0.40 0.39 0.36 0.35 0.41 0.46 0.49 0.51
0.34 0.33 0.32 0.29 0.27 0.28 0.29 0.28 0.28 0.28 0.27 0.29 0.32 0.37 0.43 0.45 0.43 0.48 0.57 0.65 0.59 0.49 0.42 0.41 0.36 0.33 0.33 0.33 0.31 0.31 0.32 0.32 0.31 0.29 0.32 0.37 0.37 0.33 0.32 0.34 0.35 0.43 0.50 0.53
0.28 0.31 0.33 0.32 0.30 0.31 0.31 0.31 0.31 0.30 0.26 0.26 0.27 0.27 0.33 0.39 0.39 0.45 0.50 0.57 0.54 0.47 0.41 0.39 0.33 0.31 0.32 0.32 0.31 0.31 0.32 0.33 0.32 0.33 0.34 0.31 0.31 0.32 0.33 0.35 0.36 0.39 0.43 0.49
0.32 0.35 0.36 0.36 0.35 0.32 0.30 0.34 0.37 0.35 0.31 0.28 0.26 0.26 0.30 0.34 0.36 0.40 0.42 0.39 0.39 0.42 0.40 0.40 0.41 0.36 0.31 0.27 0.30 0.35 0.36 0.34 0.33 0.34 0.32 0.33 0.32 0.35 0.39 0.38 0.38 0.39 0.44 0.50
0.41 0.44 0.39 0.35 0.34 0.36 0.36 0.35 0.36 0.35 0.31 0.29 0.28 0.28 0.29 0.32 0.34 0.33 0.36 0.37 0.39 0.38 0.35 0.40 0.42 0.35 0.31 0.28 0.30 0.34 0.36 0.35 0.33 0.32 0.31 0.31 0.31 0.32 0.39 0.45 0.44 0.42 0.44 0.45
0.50 0.53 0.46 0.41 0.43 0.48 0.42 0.35 0.32 0.30 0.28 0.28 0.28 0.29 0.27 0.28 0.28 0.31 0.36 0.38 0.44 0.43 0.37 0.38 0.36 0.31 0.29 0.31 0.34 0.35 0.35 0.36 0.35 0.33 0.31 0.34 0.33 0.31 0.32 0.38 0.41 0.38 0.37 0.39
0.57 0.55 0.51 0.48 0.46 0.46 0.43 0.41 0.37 0.34 0.32 0.32 0.31 0.28 0.26 0.28 0.29 0.32 0.36 0.39 0.44 0.43 0.38 0.37 0.35 0.33 0.32 0.35 0.35 0.37 0.36 0.35 0.35 0.34 0.34 0.37 0.38 0.37 0.35 0.37 0.40 0.38 0.38 0.38
0.61 0.54 0.51 0.46 0.39 0.36 0.39 0.42 0.41 0.37 0.33 0.34 0.34 0.31 0.29 0.30 0.30 0.30 0.32 0.35 0.38 0.36 0.34 0.35 0.35 0.32 0.32 0.34 0.35 0.39 0.41 0.38 0.35 0.36 0.38 0.39 0.42 0.46 0.44 0.39 0.40 0.41 0.41 0.40